When you browse on this site, cookies collect data to enhance your experience and personalize the content and advertising you see.
Visit our Privacy Policy to learn more. By continuing to use the site, you agree to this use of cookies and data.
  • în România
  • Lista ţărilor
  • Pe 7 zile
  • Temperatura apei
  • Meteo pe hartă
  • Widget-uri
  • user-avatar
    Intrare

    Meteo pe oră la Steinkjer

    Astăzi, 19 Septembrie, Joi

    Timp Temperatura Precipitaţii Vânt Presiune Umiditate
    00:00 +5°C° 0.3 mm 3 m/s 758 mmHg 90%
    01:00 +6°C° 0 mm 2 m/s 758 mmHg 89%
    02:00 +4°C° 0.1 mm 3 m/s 758 mmHg 90%
    03:00 +4°C° 0.1 mm 3 m/s 759 mmHg 90%
    04:00 +3°C° 0.1 mm 3 m/s 759 mmHg 90%
    05:00 +4°C° 0 mm 2 m/s 759 mmHg 89%
    06:00 +4°C° 0 mm 2 m/s 759 mmHg 88%
    07:00 +5°C° 0 mm 2 m/s 759 mmHg 86%
    08:00 +5°C° 0.1 mm 3 m/s 759 mmHg 82%
    09:00 +7°C° 0.1 mm 3 m/s 760 mmHg 78%
    10:00 +7°C° 0.1 mm 4 m/s 760 mmHg 73%
    11:00 +7°C° 0.2 mm 4 m/s 759 mmHg 73%
    12:00 +7°C° 0.2 mm 4 m/s 759 mmHg 73%
    13:00 +7°C° 0.2 mm 4 m/s 759 mmHg 73%
    14:00 +7°C° 0.2 mm 4 m/s 759 mmHg 74%
    15:00 +7°C° 0.2 mm 4 m/s 759 mmHg 74%
    16:00 +7°C° 0.2 mm 4 m/s 759 mmHg 75%
    17:00 +7°C° 0.1 mm 3 m/s 759 mmHg 78%
    18:00 +7°C° 0.1 mm 2 m/s 759 mmHg 82%
    19:00 +6°C° 0.1 mm 2 m/s 758 mmHg 85%
    20:00 +6°C° 0.3 mm 2 m/s 758 mmHg 88%
    21:00 +6°C° 0.3 mm 2 m/s 758 mmHg 91%
    22:00 +5°C° 0.3 mm 2 m/s 757 mmHg 94%
    23:00 +5°C° 0.8 mm 2 m/s 757 mmHg 94%

    Mâine, 20 Septembrie, Vineri

    Timp Temperatura Precipitaţii Vânt Presiune Umiditate
    00:00 +5°C° 0.8 mm 2 m/s 756 mmHg 95%
    01:00 +4°C° 0.8 mm 3 m/s 755 mmHg 96%
    02:00 +4°C° 2.6 mm 3 m/s 754 mmHg 96%
    03:00 +4°C° 2.6 mm 3 m/s 753 mmHg 96%
    04:00 +4°C° 2.6 mm 2 m/s 753 mmHg 97%
    05:00 +5°C° 3.8 mm 2 m/s 752 mmHg 97%
    06:00 +5°C° 3.8 mm 2 m/s 751 mmHg 97%
    07:00 +5°C° 3.8 mm 2 m/s 751 mmHg 98%
    08:00 +5°C° 3.2 mm 3 m/s 751 mmHg 98%
    09:00 +6°C° 3.2 mm 4 m/s 750 mmHg 98%
    10:00 +7°C° 3.2 mm 4 m/s 750 mmHg 98%
    11:00 +8°C° 2.1 mm 6 m/s 750 mmHg 97%
    12:00 +9°C° 2.1 mm 7 m/s 751 mmHg 96%
    13:00 +10°C° 2.1 mm 9 m/s 751 mmHg 95%
    14:00 +10°C° 1.3 mm 9 m/s 751 mmHg 95%
    15:00 +10°C° 1.3 mm 9 m/s 751 mmHg 95%
    16:00 +9°C° 1.3 mm 10 m/s 750 mmHg 95%
    17:00 +9°C° 1.9 mm 10 m/s 751 mmHg 94%
    18:00 +9°C° 1.9 mm 10 m/s 751 mmHg 94%
    19:00 +8°C° 1.9 mm 10 m/s 751 mmHg 94%
    20:00 +8°C° 1.6 mm 10 m/s 751 mmHg 94%
    21:00 +8°C° 1.6 mm 10 m/s 751 mmHg 94%
    22:00 +8°C° 1.6 mm 10 m/s 751 mmHg 94%
    23:00 +8°C° 2.3 mm 10 m/s 751 mmHg 94%

    Poimâine, 21 Septembrie, Sâmbătă

    Timp Temperatura Precipitaţii Vânt Presiune Umiditate
    00:00 +9°C° 2.3 mm 10 m/s 751 mmHg 94%
    01:00 +9°C° 2.3 mm 10 m/s 751 mmHg 94%
    02:00 +9°C° 1.9 mm 10 m/s 751 mmHg 94%
    03:00 +9°C° 1.9 mm 10 m/s 751 mmHg 94%
    04:00 +9°C° 1.9 mm 10 m/s 751 mmHg 94%
    05:00 +9°C° 0.3 mm 10 m/s 752 mmHg 93%
    06:00 +10°C° 0.3 mm 9 m/s 752 mmHg 92%
    07:00 +10°C° 0.3 mm 9 m/s 752 mmHg 91%
    08:00 +10°C° 0 mm 8 m/s 753 mmHg 90%
    09:00 +10°C° 0 mm 8 m/s 753 mmHg 90%
    10:00 +10°C° 0 mm 7 m/s 753 mmHg 89%
    11:00 +10°C° 0.1 mm 7 m/s 754 mmHg 89%
    12:00 +10°C° 0.1 mm 7 m/s 754 mmHg 89%
    13:00 +10°C° 0.1 mm 6 m/s 754 mmHg 88%
    14:00 +9°C° 0.1 mm 6 m/s 754 mmHg 89%
    15:00 +9°C° 0.1 mm 5 m/s 754 mmHg 89%
    16:00 +10°C° 0.1 mm 4 m/s 755 mmHg 90%
    17:00 +10°C° 0 mm 3 m/s 755 mmHg 91%
    18:00 +9°C° 0 mm 2 m/s 755 mmHg 93%
    19:00 +10°C° 0 mm 1 m/s 755 mmHg 94%
    20:00 +10°C° 0 mm 1 m/s 755 mmHg 94%
    21:00 +10°C° 0 mm 1 m/s 755 mmHg 94%
    22:00 +8°C° 0 mm 0 m/s 755 mmHg 94%
    23:00 +9°C° 0 mm 1 m/s 756 mmHg 94%

    22 Septembrie, Duminică

    Timp Temperatura Precipitaţii Vânt Presiune Umiditate
    00:00 +9°C° 0 mm 1 m/s 756 mmHg 93%
    01:00 +9°C° 0 mm 1 m/s 756 mmHg 93%
    02:00 +9°C° 0 mm 1 m/s 756 mmHg 92%
    03:00 +9°C° 0 mm 1 m/s 756 mmHg 91%
    04:00 +9°C° 0 mm 1 m/s 756 mmHg 91%
    05:00 +9°C° 0 mm 1 m/s 756 mmHg 90%
    06:00 +9°C° 0 mm 1 m/s 756 mmHg 90%
    07:00 +8°C° 0 mm 2 m/s 756 mmHg 89%
    08:00 +9°C° 0 mm 2 m/s 756 mmHg 86%
    09:00 +10°C° 0 mm 2 m/s 756 mmHg 83%
    10:00 +10°C° 0 mm 2 m/s 756 mmHg 80%
    11:00 +12°C° 0 mm 2 m/s 756 mmHg 79%
    12:00 +12°C° 0 mm 2 m/s 755 mmHg 77%
    13:00 +13°C° 0 mm 2 m/s 755 mmHg 75%
    14:00 +12°C° 0 mm 2 m/s 755 mmHg 75%
    15:00 +12°C° 0 mm 2 m/s 754 mmHg 76%
    16:00 +12°C° 0 mm 2 m/s 754 mmHg 77%
    17:00 +10°C° 0 mm 2 m/s 754 mmHg 80%
    18:00 +9°C° 0 mm 2 m/s 754 mmHg 84%
    19:00 +8°C° 0 mm 2 m/s 754 mmHg 88%
    20:00 +7°C° 0 mm 2 m/s 754 mmHg 89%
    21:00 +7°C° 0 mm 2 m/s 754 mmHg 90%
    22:00 +7°C° 0 mm 2 m/s 754 mmHg 91%
    23:00 +7°C° 0 mm 2 m/s 754 mmHg 91%

    23 Septembrie, Luni

    Timp Temperatura Precipitaţii Vânt Presiune Umiditate
    00:00 +6°C° 0 mm 2 m/s 754 mmHg 92%
    01:00 +6°C° 0 mm 2 m/s 754 mmHg 92%
    02:00 +6°C° 0 mm 2 m/s 754 mmHg 93%
    03:00 +6°C° 0 mm 2 m/s 754 mmHg 93%
    04:00 +6°C° 0 mm 2 m/s 754 mmHg 93%
    05:00 +6°C° 0 mm 2 m/s 754 mmHg 93%
    06:00 +6°C° 0 mm 2 m/s 754 mmHg 92%
    07:00 +6°C° 0 mm 2 m/s 754 mmHg 92%
    08:00 +8°C° 0 mm 2 m/s 754 mmHg 87%
    09:00 +9°C° 0 mm 2 m/s 754 mmHg 81%
    10:00 +10°C° 0 mm 2 m/s 754 mmHg 76%
    11:00 +12°C° 0 mm 2 m/s 754 mmHg 74%
    12:00 +13°C° 0 mm 2 m/s 754 mmHg 71%
    13:00 +14°C° 0 mm 2 m/s 754 mmHg 69%
    14:00 +12°C° 0 mm 3 m/s 754 mmHg 69%
    15:00 +12°C° 0 mm 3 m/s 754 mmHg 70%
    16:00 +12°C° 0 mm 4 m/s 754 mmHg 70%
    17:00 +10°C° 0 mm 3 m/s 754 mmHg 74%
    18:00 +8°C° 0 mm 3 m/s 754 mmHg 78%
    19:00 +7°C° 0 mm 3 m/s 754 mmHg 82%
    20:00 +5°C° 0 mm 3 m/s 754 mmHg 82%
    21:00 +4°C° 0 mm 3 m/s 755 mmHg 83%
    22:00 +4°C° 0 mm 3 m/s 755 mmHg 83%
    23:00 +3°C° 0 mm 3 m/s 755 mmHg 84%

    24 Septembrie, Marţi

    Timp Temperatura Precipitaţii Vânt Presiune Umiditate
    00:00 +3°C° 0 mm 3 m/s 755 mmHg 84%
    01:00 +4°C° 0 mm 2 m/s 755 mmHg 84%
    02:00 +4°C° 0 mm 2 m/s 755 mmHg 85%
    03:00 +3°C° 0 mm 2 m/s 754 mmHg 86%
    04:00 +3°C° 0 mm 2 m/s 754 mmHg 87%
    05:00 +4°C° 0 mm 2 m/s 754 mmHg 87%
    06:00 +4°C° 0 mm 2 m/s 754 mmHg 87%
    07:00 +4°C° 0 mm 2 m/s 754 mmHg 88%
    08:00 +5°C° 0 mm 2 m/s 754 mmHg 82%
    09:00 +7°C° 0 mm 3 m/s 754 mmHg 77%
    10:00 +9°C° 0 mm 3 m/s 754 mmHg 71%
    11:00 +9°C° 0 mm 3 m/s 754 mmHg 69%
    12:00 +10°C° 0 mm 3 m/s 754 mmHg 67%
    13:00 +11°C° 0 mm 4 m/s 754 mmHg 65%
    14:00 +11°C° 0 mm 4 m/s 754 mmHg 66%
    15:00 +10°C° 0 mm 4 m/s 754 mmHg 67%
    16:00 +10°C° 0 mm 4 m/s 754 mmHg 68%
    17:00 +8°C° 0 mm 4 m/s 754 mmHg 73%
    18:00 +6°C° 0 mm 4 m/s 754 mmHg 78%
    19:00 +5°C° 0 mm 3 m/s 754 mmHg 84%
    20:00 +5°C° 0 mm 3 m/s 754 mmHg 85%
    21:00 +4°C° 0 mm 3 m/s 754 mmHg 86%
    22:00 +4°C° 0 mm 3 m/s 754 mmHg 87%
    23:00 +4°C° 0 mm 3 m/s 754 mmHg 87%
    Arată mai mult